Hourly Data Report for June 09, 2021

ATIKOKAN (AUT)
ONTARIO
Current Station Operator: ECCC - MSC

48°45'40.000" N
91°37'41.000" W
389.30 m
6020LPQ
71747
WCH

Download Data

Hourly Data (June 2021)
Hourly Data Report for June 9, 2021
TIME
LST
Temp Definition
°C
Dew Point Definition
°C
Rel Hum Definition
%
Precip. Amount Definition
mm

Wind Dir Definition
10's deg

Wind Spd Definition
km/h
Visibility Definition
km
Stn Press Definition
kPa
Hmdx Definition


Wind Chill Definition


Weather Definition


00:00 17.2 14.8 85 0.0 5 4   97.30     LegendNANA
01:00 16.0 14.5 91 0.0 0 1   97.30     LegendNANA
02:00 14.7 13.7 94 0.0   0   97.26     LegendNANA
03:00 14.0 13.5 96 0.0   0   97.31     LegendNANA
04:00 13.4 13.0 97 0.0 5 2   97.39     LegendNANA
05:00 14.0 13.7 98 0.0 5 4   97.40     LegendNANA
06:00 18.6 14.1 75 0.0 11 7   97.38     LegendNANA
07:00 21.8 13.6 60 0.0 11 9   97.42 25   LegendNANA
08:00 22.9 14.3 58 0.0 12 10   97.39 26   LegendNANA
09:00 25.4 14.7 51 0.0 13 11   97.37 29   LegendNANA
10:00 27.0 14.0 45 0.0 14 15   97.32 30   LegendNANA
11:00 27.9 14.1 43 0.0 14 15   97.26 31   LegendNANA
12:00 29.1 14.3 41 0.0 16 15   97.22 33   LegendNANA
13:00 28.4 12.9 38 0.0 16 18   97.18 31   LegendNANA
14:00 29.7 13.5 37 0.0 16 17   97.10 33   LegendNANA
15:00 29.5 12.5 35 0.0 14 16   97.03 32   LegendNANA
16:00 29.4 12.7 36 0.0 15 17   96.95 32   LegendNANA
17:00 28.0 12.5 39 0.0 15 13   96.92 31   LegendNANA
18:00 26.9 12.1 40 0.0 14 15   96.82 29   LegendNANA
19:00 20.3 15.0 71 0.0 21 29   97.22     LegendNANA
20:00 17.6 17.1 97 6.0 9 7   97.03     LegendNANA
21:00 17.8 17.4 98 1.6 8 5   97.02     LegendNANA
22:00 18.1 17.8 98 3.4 14 7   96.99     LegendNANA
23:00 17.8 17.2 96 0.3 14 9   96.88     LegendNANA

Notes on Data Quality.

Legend

  • E = Estimated
  • M = Missing
  • NA = Not Available*
  • [empty] = Indicates an unobserved value
Date modified: